Location: PSU-Greenbush Astrophysical Observatory
(37.5140°N, 94.9880°W)
Time: 20:56:36
(UTC-05:00)

CUTE 1.7 + AOD 2 - Pass Details

Date: 21 February 2020
Orbit: 593 x 612 km, 97.6° (Epoch: 08 April)

Event Time Altitude Azimuth Distance (km) Brightness Sun altitude
Rises 06:22:33 0° 358° (N) 2,846 ? -8.6°
Reaches altitude 10° 06:24:59 10° 346° (NNW) 1,937 ? -8.2°
Maximum altitude 06:28:27 26° 290° (WNW) 1,195 ? -7.5°
Drops below altitude 10° 06:31:54 10° 234° (SW) 1,921 ? -6.8°
Sets 06:34:19 0° 221° (SW) 2,818 ? -6.3°
